Station SEIM1 - 8419870 - Seavey Island, ME Image indicating link to RSS feed of recent meteorological observations for station SEIM1


Conditions at SEIM1 as of
(9:18 pm EDT on 04/15/2024)
0118 GMT on 04/16/2024:
     

Click on the graph icon in the table below to see a time series plot of the last five days of that observation.

5-day plot - Atmospheric Pressure Atmospheric Pressure (PRES):29.95 in
5-day plot - Air Temperature Air Temperature (ATMP): 53.8 °F
5-day plot - Water Temperature Water Temperature (WTMP): 42.4 °F
5-day plot - Dew Point Dew Point (DEWP): 43.2 °F
NOS Water Level Observation Network Water Level
Previous observations
TIME
(EDT)
5-day plot - Wind Direction
WDIR
 
5-day plot - Wind Speed
WSPD
kts
5-day plot - Wind Gust
GST
kts
5-day plot - Wave Height
WVHT
ft
5-day plot - Dominant Wave Period
DPD
sec
5-day plot - Average Wave Period
APD
sec
5-day plot - Mean Wave Direction
MWD
 
5-day plot - Atmospheric Pressure
PRES
in
5-day plot - Pressure Tendency
PTDY
in
5-day plot - Air Temperature
ATMP
°F
5-day plot - Water Temperature
WTMP
°F
5-day plot - Dew Point
DEWP
°F
5-day plot - Salinity
SAL
psu
5-day plot - Visibility
VIS
nmi
5-day plot - Tide (above MLLW)
TIDE
ft
2024-04-15 09:12 pm-------29.95- 54.0 42.4 42.8---
2024-04-15 09:06 pm-------29.94- 54.0 42.6 42.4---
2024-04-15 09:00 pm-------29.94+0.09- 42.6----
2024-04-15 08:54 pm-------29.94-- 42.8----
2024-04-15 08:48 pm-------29.94- 54.7 42.8 41.7---
2024-04-15 08:42 pm-------29.93- 54.7 42.6 41.7---
2024-04-15 08:36 pm-------29.93- 54.9 42.6 41.5---
2024-04-15 08:30 pm-------29.93- 55.2 42.4 41.4---
2024-04-15 08:24 pm-------29.93- 55.4 41.9 41.4---
2024-04-15 08:18 pm-------29.92-- 42.3----
2024-04-15 08:12 pm-------29.92-- 43.0----
2024-04-15 08:06 pm-------29.92-- 43.5----
2024-04-15 08:00 pm-------29.92+0.11 56.1 43.5 41.2---
2024-04-15 07:54 pm-------29.91- 56.1 43.0 41.0---
2024-04-15 07:48 pm-------29.91- 55.8 42.6 41.7---
2024-04-15 07:42 pm-------29.91- 55.9 41.9 41.4---
2024-04-15 07:36 pm-------29.91- 56.1 41.9 41.4---
2024-04-15 07:30 pm-------29.90- 56.7 41.7 41.0---
2024-04-15 07:24 pm-------29.89- 56.8 41.9 41.0---
2024-04-15 07:00 pm-------29.88+0.11 57.7 42.3 41.4---
2024-04-15 06:54 pm-------29.88- 57.4 42.1 41.4---
2024-04-15 06:48 pm-------29.88- 57.4 42.3 41.2---
2024-04-15 06:42 pm-------29.87- 57.7 41.9 41.2---
2024-04-15 06:36 pm-------29.87- 58.1 42.1 41.0---
2024-04-15 06:30 pm-------29.86-- 42.1----
2024-04-15 06:24 pm-------29.86-- 41.7----
2024-04-15 06:18 pm-------29.86- 60.8 41.7 40.8---
2024-04-15 06:12 pm-------29.85- 60.6 41.7 41.2---
2024-04-15 06:06 pm-------29.85- 60.6 41.9 41.9---
2024-04-15 06:00 pm-------29.85+0.10 60.4 42.3 41.9---
2024-04-15 05:54 pm-------29.85- 60.8 42.1 41.9---
2024-04-15 05:48 pm-------29.84- 61.3 41.9 41.9---
2024-04-15 05:42 pm-------29.84- 61.2 41.9 41.7---
2024-04-15 05:36 pm-------29.84- 61.0 41.9 41.5---
2024-04-15 05:30 pm-------29.83- 62.2 42.3 41.2---
2024-04-15 05:24 pm-------29.83- 63.7 42.1 40.5---
2024-04-15 05:18 pm--------- 63.5 42.1 40.3---
2024-04-15 05:12 pm--------- 63.7 42.3 39.9---
2024-04-15 05:06 pm--------- 64.6 42.4 40.1---
2024-04-15 05:00 pm-------29.81+0.04 64.2 42.6 39.9---
2024-04-15 04:54 pm-------29.80- 64.8 42.4 40.3---
2024-04-15 04:48 pm-------29.80- 64.2 42.4 40.6---
2024-04-15 04:42 pm-------29.79- 64.9 42.6 40.8---
2024-04-15 04:36 pm-------29.79- 66.2 42.3 40.6---
2024-04-15 04:30 pm-------29.78- 65.8 42.4 40.3---
2024-04-15 04:24 pm-------29.78- 66.9 42.6 34.7---
2024-04-15 04:18 pm-------29.78- 67.3 43.2 32.9---
2024-04-15 04:12 pm-------29.78- 66.4 43.2 33.3---
2024-04-15 04:06 pm-------29.77- 66.2 43.2 32.5---
2024-04-15 04:00 pm-------29.77+0.00 66.4 42.8 32.9---
2024-04-15 03:54 pm-------29.77- 66.9 43.3 33.1---
2024-04-15 03:48 pm-------29.76- 66.7 42.8 33.8---
2024-04-15 03:42 pm-------29.76- 66.6 43.7 34.3---
2024-04-15 03:36 pm-------29.76- 63.7 43.5 42.1---
2024-04-15 03:30 pm-------29.75- 61.5 43.9 45.9---
2024-04-15 03:24 pm-------29.75- 62.8 45.3 45.1---
2024-04-15 03:18 pm-------29.75- 60.6 45.0 46.4---
2024-04-15 03:12 pm-------29.75- 60.1 45.0 46.4---
2024-04-15 03:06 pm-------29.75- 60.3 45.7 46.2---
2024-04-15 03:00 pm-------29.75-0.02 60.8 45.9 46.8---
2024-04-15 02:54 pm-------29.75- 63.0 46.0 43.0---
2024-04-15 02:48 pm-------29.75- 60.6 46.0 46.9---
2024-04-15 02:42 pm-------29.76- 59.2 45.7 46.9---
2024-04-15 02:36 pm-------29.76- 60.8 46.0 47.1---
2024-04-15 02:30 pm-------29.76- 59.4 46.2 47.5---
2024-04-15 02:24 pm-------29.77- 58.8 46.6 47.7---
2024-04-15 02:18 pm-------29.77- 58.1 46.6 47.8---
2024-04-15 02:12 pm-------29.77- 60.1 46.6 48.0---
2024-04-15 02:06 pm-------29.77- 59.4 46.6 48.2---
2024-04-15 02:00 pm-------29.77-0.03 59.5 46.6 47.8---
2024-04-15 01:54 pm-------29.77- 59.0 46.8 48.6---
2024-04-15 01:48 pm-------29.77- 58.8 46.8 48.7---
2024-04-15 01:42 pm-------29.77- 60.1 46.8 48.6---
2024-04-15 01:36 pm-------29.77- 59.9 46.6 48.6---
2024-04-15 01:30 pm-------29.77- 59.9 46.6 48.2---
2024-04-15 01:24 pm-------29.77- 61.2 46.8 47.7---
2024-04-15 01:18 pm-------29.77- 61.9 46.6 46.6---
2024-04-15 01:12 pm-------29.77- 62.1 46.6 47.7---
2024-04-15 01:06 pm-------29.77- 60.8 46.4 48.0---
2024-04-15 01:00 pm-------29.77-0.03 61.0 46.4 48.2---
2024-04-15 12:54 pm-------29.77- 61.2 46.4 47.5---
2024-04-15 12:48 pm-------29.77- 63.9 46.2 43.5---
2024-04-15 12:42 pm-------29.77- 63.9 46.2 43.0---
2024-04-15 12:36 pm-------29.77- 63.1 46.2 42.8---
2024-04-15 12:30 pm-------29.77- 63.0 46.0 43.3---
2024-04-15 12:24 pm-------29.77- 62.1 46.0 44.4---
2024-04-15 12:18 pm-------29.77- 61.2 46.0 44.6---
2024-04-15 12:12 pm-------29.77- 59.2 45.9 48.2---
2024-04-15 12:06 pm-------29.78- 60.3 45.9 48.7---
2024-04-15 12:00 pm-------29.78-0.02 59.4 45.9 48.7---
2024-04-15 11:54 am-------29.78- 58.1 45.7 48.9---
2024-04-15 11:48 am-------29.78- 58.3 45.7 48.7---
2024-04-15 11:42 am-------29.78- 58.6 45.5 49.1---
2024-04-15 11:36 am-------29.78- 57.9 45.5 48.6---
2024-04-15 11:30 am-------29.78- 58.3 45.3 48.9---
2024-04-15 11:24 am-------29.79- 57.0 45.3 48.4---
2024-04-15 11:18 am-------29.79- 56.8 45.1 48.6---
2024-04-15 11:12 am-------29.79- 56.7 45.0 48.6---
2024-04-15 11:06 am-------29.80- 56.3 45.0 48.2---
2024-04-15 11:00 am-------29.80+0.00 56.1 44.8 48.0---
2024-04-15 10:54 am-------29.80- 56.5 44.6 48.0---
2024-04-15 10:48 am-------29.80- 55.9 44.6 47.7---
2024-04-15 10:42 am-------29.80- 54.5 44.4 47.5---
2024-04-15 10:36 am-------29.80- 56.8 44.2 46.9---
2024-04-15 10:30 am-------29.80-- 44.2----
2024-04-15 10:24 am-------29.79-- 44.1----
2024-04-15 10:18 am-------29.79- 56.8 43.9 46.8---
2024-04-15 10:12 am-------29.79- 56.1 43.9 46.4---
2024-04-15 10:06 am-------29.79- 55.4 43.7 46.2---
2024-04-15 10:00 am-------29.80+0.02 54.9 43.5 46.0---
2024-04-15 09:54 am-------29.80- 54.7 43.3 45.9---
2024-04-15 09:48 am-------29.80- 54.3 43.2 45.9---
2024-04-15 09:42 am-------29.80- 53.8 43.2 45.9---
2024-04-15 09:36 am-------29.80- 53.6 43.0 46.0---
2024-04-15 09:30 am-------29.80- 54.1 42.8 45.9---
2024-04-15 09:24 am-------29.80- 52.9 42.8 45.9---
2024-04-15 09:18 am-------29.80- 52.2 42.6 45.7---
2024-04-15 09:12 am-------29.80- 51.3 42.4 45.7---
2024-04-15 09:06 am-------29.80- 50.0 42.3 45.3---
2024-04-15 09:00 am-------29.80+0.04 49.6 42.1 44.6---
2024-04-15 08:54 am-------29.80- 49.5 42.1 44.6---
2024-04-15 08:48 am-------29.80- 48.9 42.1 45.0---
2024-04-15 08:42 am-------29.79- 48.6 41.9 45.1---
2024-04-15 08:36 am-------29.79- 49.3 41.9 45.7---
2024-04-15 08:30 am-------29.79- 48.7 41.7 45.7---
2024-04-15 08:24 am-------29.79- 48.4 41.5 45.9---
2024-04-15 08:18 am-------29.79- 48.0 41.5 45.7---
2024-04-15 08:12 am-------29.79- 48.0 41.7 45.9---
2024-04-15 08:06 am-------29.79- 47.3 41.7 45.9---
2024-04-15 08:00 am-------29.80+0.06 46.6 41.7 45.7---
2024-04-15 07:54 am-------29.79- 46.4 41.7 45.9---
2024-04-15 07:48 am-------29.79- 45.7 41.5 45.7---
2024-04-15 07:42 am-------29.79- 45.3 41.7 45.3---
2024-04-15 07:36 am-------29.79- 45.0 41.7 45.0---
2024-04-15 07:30 am-------29.79- 44.8 41.5 44.8---
2024-04-15 07:24 am-------29.79- 44.4 41.5 44.4---
2024-04-15 07:18 am-------29.79- 44.2 41.7 44.2---
2024-04-15 07:12 am-------29.78- 44.1 41.9 44.1---
2024-04-15 07:06 am-------29.78- 43.9 41.9 43.9---
2024-04-15 07:00 am-------29.78+0.06 44.2 41.7 44.2---
2024-04-15 06:54 am-------29.77- 43.9 41.4 43.9---
2024-04-15 06:48 am-------29.77- 43.5 41.4 43.5---
2024-04-15 06:42 am-------29.77- 43.7 41.5 43.7---
2024-04-15 06:36 am-------29.76- 44.1 41.4 44.1---
2024-04-15 06:30 am-------29.76- 44.1 41.4 44.1---
2024-04-15 06:24 am-------29.76- 43.7 41.4 43.7---
2024-04-15 06:18 am-------29.76- 43.7 41.2 43.7---
2024-04-15 06:12 am-------29.76- 43.7 41.4 43.7---
2024-04-15 06:06 am-------29.76- 43.7 41.7 43.7---
2024-04-15 06:00 am-------29.76+0.06 43.3 41.7 43.3---
2024-04-15 05:54 am-------29.76- 42.6 41.7 42.6---
2024-04-15 05:48 am-------29.75- 42.3 41.5 42.3---
2024-04-15 05:42 am-------29.75- 42.1 41.7 42.1---
2024-04-15 05:36 am-------29.75- 42.1 41.9 42.1---
2024-04-15 05:30 am-------29.74- 42.3 41.9 42.3---
2024-04-15 05:24 am-------29.74- 42.6 41.7 42.6---
2024-04-15 05:18 am-------29.74- 42.8 41.9 42.8---
2024-04-15 05:12 am-------29.74- 43.2 41.9 43.2---
2024-04-15 05:06 am-------29.74- 43.0 41.9 43.0---
2024-04-15 05:00 am-------29.74+0.04 42.6 42.1 42.6---
2024-04-15 04:54 am-------29.73- 42.8 41.9 42.8---
2024-04-15 04:48 am-------29.73- 42.8 41.9 42.8---
2024-04-15 04:42 am-------29.73- 42.8 41.9 42.8---
2024-04-15 04:36 am-------29.73- 42.8 41.9 42.8---
2024-04-15 04:30 am-------29.73- 42.8 42.1 42.8---
2024-04-15 04:24 am-------29.72- 43.0 42.1 43.0---
2024-04-15 04:18 am-------29.72- 43.2 42.1 43.2---
2024-04-15 04:12 am-------29.72- 43.3 42.1 43.3---
2024-04-15 04:06 am-------29.71- 43.5 42.1 43.5---
2024-04-15 04:00 am-------29.71+0.00 43.9 42.3 43.9---
2024-04-15 03:54 am-------29.71- 44.1 42.3 44.1---
2024-04-15 03:48 am-------29.71- 44.1 42.3 44.1---
2024-04-15 03:42 am-------29.71- 44.4 42.1 44.4---
2024-04-15 03:36 am-------29.70- 44.6 42.1 44.6---
2024-04-15 03:30 am-------29.70- 44.8 42.1 44.8---
2024-04-15 03:24 am-------29.70- 44.8 42.3 44.8---
2024-04-15 03:18 am-------29.70- 44.6 42.3 44.6---
2024-04-15 03:12 am-------29.70- 45.1 42.4 45.1---
2024-04-15 03:06 am-------29.70- 45.3 42.4 45.3---
2024-04-15 03:00 am-------29.70-0.02 45.1 42.8 45.1---
2024-04-15 02:54 am-------29.70- 45.0 42.4 45.0---
2024-04-15 02:48 am-------29.70- 45.3 42.4 45.1---
2024-04-15 02:42 am-------29.70- 46.0 42.4 45.5---
2024-04-15 02:36 am-------29.70- 45.7 42.8 45.7---
2024-04-15 02:30 am-------29.69- 45.3 43.0 45.3---
2024-04-15 02:24 am-------29.70- 45.0 42.8 45.0---
2024-04-15 02:18 am-------29.70- 44.8 43.9 44.8---
2024-04-15 02:12 am-------29.70- 44.8 44.2 44.8---
2024-04-15 02:06 am-------29.70- 44.8 43.9 44.8---
2024-04-15 02:00 am-------29.70-0.03 44.8 44.8 44.8---
2024-04-15 01:54 am-------29.70- 45.0 44.6 45.0---
2024-04-15 01:48 am-------29.70- 45.0 44.6 45.0---
2024-04-15 01:42 am-------29.70- 45.3 44.8 45.0---
2024-04-15 01:36 am-------29.70- 45.7 44.8 45.1---
2024-04-15 01:30 am-------29.70- 46.0 45.0 45.1---
2024-04-15 01:24 am-------29.70- 46.6 45.3 45.3---
2024-04-15 01:18 am-------29.70- 46.4 45.7 45.3---
2024-04-15 01:12 am-------29.70- 45.9 45.7 45.1---
2024-04-15 01:06 am-------29.71- 45.7 45.7 45.1---
2024-04-15 01:00 am-------29.71-0.03 45.5 45.7 45.3---
2024-04-15 12:54 am-------29.71- 45.7 45.7 45.3---
2024-04-15 12:48 am-------29.71- 45.9 45.7 45.0---
2024-04-15 12:42 am-------29.71- 46.2 45.7 44.8---
2024-04-15 12:36 am-------29.71- 46.6 45.7 44.8---
2024-04-15 12:30 am-------29.71- 46.9 45.7 44.8---
2024-04-15 12:24 am-------29.72- 46.9 45.5 44.6---
2024-04-15 12:18 am-------29.72- 46.9 45.5 44.4---
2024-04-15 12:12 am-------29.72- 47.1 45.5 44.4---
2024-04-15 12:06 am-------29.72- 47.5 45.5 44.2---
2024-04-15 12:00 am-------29.72-0.01 47.7 45.5 44.4---
2024-04-14 11:54 pm-------29.72- 47.7 45.5 44.2---
2024-04-14 11:48 pm-------29.72- 47.7 45.3 44.2---
2024-04-14 11:42 pm-------29.72- 47.7 45.3 44.1---
2024-04-14 11:36 pm-------29.72- 48.0 45.3 44.1---
2024-04-14 11:30 pm-------29.73- 48.2 45.1 44.1---
2024-04-14 11:24 pm-------29.73- 48.4 45.1 44.2---
2024-04-14 11:18 pm-------29.73- 48.4 45.0 44.2---
2024-04-14 11:12 pm-------29.73- 48.7 45.0 44.1---
2024-04-14 11:06 pm-------29.73- 49.5 45.0 44.1---
2024-04-14 11:00 pm-------29.74+0.00 49.8 44.8 43.3---
2024-04-14 10:54 pm-------29.73- 49.8 44.8 43.3---
2024-04-14 10:48 pm-------29.74- 49.6 44.6 43.5---
2024-04-14 10:42 pm-------29.74- 49.5 44.6 43.5---
2024-04-14 10:36 pm-------29.74- 49.3 44.6 43.9---
2024-04-14 10:30 pm-------29.74- 49.3 44.4 43.7---
2024-04-14 10:24 pm-------29.74- 49.5 44.4 43.7---
2024-04-14 10:18 pm-------29.75- 49.8 44.2 44.2---
2024-04-14 10:12 pm-------29.75- 49.8 44.1 44.8---
2024-04-14 10:06 pm-------29.75- 50.4 44.1 44.8---
2024-04-14 10:00 pm-------29.74-0.02 50.5 43.9 44.6---
2024-04-14 09:54 pm-------29.74- 50.5 43.7 44.6---
2024-04-14 09:48 pm-------29.74- 51.1 43.5 44.8---
2024-04-14 09:42 pm-------29.74- 51.1 43.3 44.8---
2024-04-14 09:36 pm-------29.74- 50.9 43.3 45.0---
2024-04-14 09:30 pm-------29.74- 51.1 43.2 45.0---
2024-04-14 09:24 pm-------29.74- 51.1 43.0 45.0---
2024-04-14 09:18 pm-------29.74- 51.3 42.8 45.0---
2024-04-14 09:12 pm-------29.73- 51.3 42.6 45.0---
2024-04-14 09:06 pm-------29.74- 51.3 42.6 45.0---
2024-04-14 09:00 pm-------29.73-0.01 51.1 42.4 45.0---
2024-04-14 08:54 pm-------29.74- 51.3 42.3 45.0---